This is the latest recevied weather packets stored in our database for station/object S55YIZ-7. If no packets are shown the sender has not sent any weather packets the latest 10 day(s).
| Time | Temp. | Humidity | Pressure | Rain* | Wind** | Luminosity | Snow |
|---|---|---|---|---|---|---|---|
| 1777667062 | 15° C | 51% | 1026.7 hPa | - | - | - | - |
| 1777666161 | 15° C | 50% | 1026.7 hPa | - | - | - | - |
| 1777665261 | 15° C | 51% | 1026.5 hPa | - | - | - | - |
| 1777664361 | 13.89° C | 62% | 1026.4 hPa | - | - | - | - |
| 1777663461 | 13.89° C | 64% | 1026.3 hPa | - | - | - | - |
| 1777662561 | 14.44° C | 63% | 1026.1 hPa | - | - | - | - |
| 1777661660 | 13.89° C | 70% | 1026.1 hPa | - | - | - | - |
| 1777660760 | 14.44° C | 68% | 1025.8 hPa | - | - | - | - |
| 1777659860 | 14.44° C | 69% | 1025.7 hPa | - | - | - | - |
| 1777658959 | 15° C | 65% | 1025.5 hPa | - | - | - | - |
| 1777658059 | 15° C | 69% | 1025.2 hPa | - | - | - | - |
| 1777657159 | 16.11° C | 60% | 1025.2 hPa | - | - | - | - |
| 1777656270 | 17.22° C | 52% | 1025.1 hPa | - | - | - | - |
| 1777655370 | 17.22° C | 48% | 1025 hPa | - | - | - | - |
| 1777654470 | 17.78° C | 48% | 1025 hPa | - | - | - | - |
| 1777653760 | 18.89° C | 44% | 1025.1 hPa | - | - | - | - |
| 1777653707 | 18.89° C | 44% | 1025.1 hPa | - | - | - | - |
| 1777653570 | 18.89° C | 44% | 1025.1 hPa | - | - | - | - |
| 1777652670 | 20° C | 42% | 1025.1 hPa | - | - | - | - |
| 1777651770 | 20.56° C | 31% | 1025 hPa | - | - | - | - |
| 1777650870 | 21.11° C | 31% | 1025 hPa | - | - | - | - |
| 1777650280 | 21.67° C | 30% | 1024.9 hPa | - | - | - | - |
| 1777649969 | 21.67° C | 30% | 1024.9 hPa | - | - | - | - |
| 1777649069 | 21.11° C | 30% | 1025 hPa | - | - | - | - |
| 1777648169 | 21.11° C | 29% | 1025.2 hPa | - | - | - | - |
* Rain since midnight (hover to see other rain measurements)
** Current wind speed in m/s (hover to see current wind gust speed)